Stations météo

réclame
Mon MeteoGroup
Boulmer, Grande-Bretagne (3240): Température de l'air & dewpoint: 15.07.2018 08:00:00 - 21.07.2018 08:00:00 (BST)Boulmer, Grande-Bretagne (3240): Vitesse du vent: 15.07.2018 08:00:00 - 21.07.2018 08:00:00 (BST)Boulmer, Grande-Bretagne (3240): Direction du vent: 15.07.2018 08:00:00 - 21.07.2018 08:00:00 (BST)Boulmer, Grande-Bretagne (3240): reduced air pressure: 15.07.2018 08:00:00 - 21.07.2018 08:00:00 (BST)Boulmer, Grande-Bretagne (3240): visibility: 15.07.2018 08:00:00 - 21.07.2018 08:00:00 (BST)Boulmer, Grande-Bretagne (3240): Ensoleillement: 15.07.2018 08:00:00 - 21.07.2018 08:00:00 (BST)Boulmer, Grande-Bretagne (3240): Quantités de précipitations: 15.07.2018 08:00:00 - 21.07.2018 08:00:00 (BST)
Date & Time tt [°C] td [°C] ff [km/h] ff [knt] dd ppp [hPa] vv [km] sd [min] rr [mm]
21.07.2018 08:00:00 16,6 14,5 8 4 W 1013,0 40 0 0,0
21.07.2018 07:00:00 14,9 14,1 8 4 W 1013,0 10 0 0,0
21.07.2018 06:00:00 13,8 13,3 8 4 SW 1013,0 10 0 0,0
21.07.2018 05:00:00 13,2 13,1 8 4 W 1013,0 10 0 0,0
21.07.2018 04:00:00 12,4 12,1 11 6 W 1012,7 10 0 0,0
21.07.2018 03:00:00 12,1 12,0 4 2 W 1013,0 10 0 0,0
21.07.2018 02:00:00 11,8 11,6 5 3 SW 1013,0 10 0 0,0
21.07.2018 01:00:00 11,9 11,7 8 4 S 1012,8 1,1 - 0,0
21.07.2018 00:00:00 12,7 12,4 5 3 S 1012,8 10 0 0,0
20.07.2018 23:00:00 13,7 13,1 5 3 S 1012,6 10 0 0,0
20.07.2018 22:00:00 14,4 13,8 8 4 S 1012,7 10 0 0,0
20.07.2018 21:00:00 14,8 14,0 5 3 SSE 1012,7 10 12 0,0
20.07.2018 20:00:00 15,7 14,2 8 4 SSE 1012,5 10 0 0,0
20.07.2018 19:00:00 16,5 14,8 9 5 SSW 1012,6 10 0 0,4
20.07.2018 18:00:00 16,9 14,9 15 8 SW 1012,5 10 0 0,0
20.07.2018 17:00:00 16,8 14,4 13 7 SW 1012,7 10 0 0,0
20.07.2018 16:00:00 16,1 14,1 11 6 SSW 1012,9 10 0 0,0
20.07.2018 15:00:00 16,0 14,6 11 6 SW 1013,0 10 0 1,2
20.07.2018 14:00:00 15,4 14,1 13 7 S 1013,0 9 0 0,4
20.07.2018 13:00:00 17,7 12,5 18 10 SSW 1012,8 10 0 0,0
20.07.2018 12:00:00 17,2 11,1 22 12 SW 1013,0 10 0 0,0
20.07.2018 11:00:00 18,2 10,5 18 10 SW 1013,1 10 0 0,0
20.07.2018 10:00:00 17,7 10,7 15 8 SSW 1013,4 10 0 0,0
20.07.2018 09:00:00 17,5 10,1 16 9 SW 1013,6 10 12 0,0
20.07.2018 08:00:00 15,1 10,8 13 7 SW 1013,8 10 6 0,0
20.07.2018 07:00:00 14,3 10,9 13 7 SW 1014,0 10 6 0,0
20.07.2018 06:00:00 13,0 9,7 13 7 WSW 1014,1 10 0 0,0
20.07.2018 05:00:00 12,6 9,9 16 9 WSW 1014,7 10 0 0,0
20.07.2018 04:00:00 11,4 8,9 9 5 WSW 1015,2 10 0 0,0
20.07.2018 03:00:00 12,0 8,9 5 3 SSW 1015,4 10 0 0,0
20.07.2018 02:00:00 12,9 9,0 13 7 WSW 1015,4 10 0 0,0
20.07.2018 01:00:00 13,0 9,0 16 9 WSW 1015,8 10 - 0,0
20.07.2018 00:00:00 13,6 9,1 16 9 WSW 1016,1 10 0 0,0
19.07.2018 23:00:00 13,4 9,6 13 7 SW 1016,3 10 0 0,0
19.07.2018 22:00:00 16,1 10,1 11 6 WSW 1016,4 10 0 0,0
19.07.2018 21:00:00 17,2 14,5 5 3 SSW 1016,2 10 54 0,0
19.07.2018 20:00:00 17,3 15,1 11 6 SSE 1016,4 10 24 0,0
19.07.2018 19:00:00 17,3 15,1 13 7 SSE 1016,5 10 30 0,0
19.07.2018 18:00:00 18,1 14,8 24 13 SSE 1016,6 10 36 0,0
19.07.2018 17:00:00 18,1 14,1 24 13 SSE 1017,0 10 12 0,0
19.07.2018 16:00:00 16,8 14,3 21 11 SSE 1017,5 10 12 0,0
19.07.2018 15:00:00 17,5 14,0 15 8 SSE 1017,8 10 6 0,0
19.07.2018 14:00:00 19,0 12,9 11 6 ESE 1017,9 10 36 0,0
19.07.2018 13:00:00 17,7 14,0 9 5 E 1018,2 10 42 0,0
19.07.2018 12:00:00 18,6 13,0 9 5 NE 1018,4 10 48 0,0
19.07.2018 11:00:00 18,4 12,5 11 6 NE 1018,5 10 54 0,0
19.07.2018 10:00:00 17,4 13,1 8 4 NE 1018,6 10 36 0,0
19.07.2018 09:00:00 16,3 13,2 5 3 SE 1018,8 10 0 0,0
19.07.2018 08:00:00 16,1 13,1 5 3 SE 1018,9 10 36 0,0
19.07.2018 07:00:00 14,0 12,6 2 1 S 1018,9 10 18 0,0
19.07.2018 06:00:00 13,1 11,2 4 2 W 1018,7 10 0 0,0
19.07.2018 05:00:00 12,9 11,5 4 2 WSW 1018,9 10 0 0,0
19.07.2018 04:00:00 12,5 11,5 5 3 SW 1019,0 10 0 0,0
19.07.2018 03:00:00 11,7 10,8 4 2 WSW 1018,9 10 0 0,0
19.07.2018 02:00:00 12,7 11,5 5 3 W 1018,9 10 0 0,0
19.07.2018 01:00:00 13,1 12,0 4 2 WSW 1018,9 10 - 0,0
19.07.2018 00:00:00 14,4 12,8 4 2 SSE 1019,1 10 0 0,0
18.07.2018 23:00:00 14,9 12,9 2 1 SSE 1019,0 10 0 0,0
18.07.2018 22:00:00 15,2 13,4 4 2 SE 1019,0 10 0 0,0
18.07.2018 21:00:00 15,8 13,5 8 4 S 1018,8 10 0 0,0
18.07.2018 20:00:00 16,5 13,1 8 4 SSE 1018,8 10 0 0,0
18.07.2018 19:00:00 16,9 13,1 9 5 SSE 1018,7 10 0 0,0
18.07.2018 18:00:00 17,2 13,3 13 7 SE 1018,5 10 0 0,0
18.07.2018 17:00:00 17,0 12,1 16 9 SSE 1018,5 10 0 0,0
18.07.2018 16:00:00 17,3 11,7 11 6 SE 1018,3 10 0 0,0
18.07.2018 15:00:00 17,3 11,6 11 6 SE 1018,1 10 0 0,0
18.07.2018 14:00:00 17,5 11,3 11 6 SE 1017,8 10 18 0,0
18.07.2018 13:00:00 17,1 10,7 11 6 ESE 1017,7 10 0 0,0
18.07.2018 12:00:00 17,6 11,2 16 9 SE 1017,4 30 18 0,0
18.07.2018 11:00:00 18,9 11,1 15 8 SE 1017,2 10 24 0,0
18.07.2018 10:00:00 18,8 9,8 8 4 SW 1017,1 10 60 0,0
18.07.2018 09:00:00 17,2 10,7 15 8 WSW 1017,1 10 60 0,0
18.07.2018 08:00:00 15,7 10,9 13 7 SW 1016,9 10 60 0,0
18.07.2018 07:00:00 13,3 10,0 13 7 SW 1016,5 10 36 0,0
18.07.2018 06:00:00 10,9 8,9 8 4 SW 1016,2 10 0 0,0
18.07.2018 05:00:00 12,0 8,7 8 4 WNW 1015,9 10 0 0,0
18.07.2018 04:00:00 12,4 8,8 11 6 W 1015,7 10 0 0,0
18.07.2018 03:00:00 12,5 8,9 16 9 W 1015,6 10 0 0,0
18.07.2018 02:00:00 13,5 9,3 16 9 WSW 1015,5 10 0 0,0
18.07.2018 01:00:00 13,9 9,7 18 10 WSW 1015,3 10 - 0,0
18.07.2018 00:00:00 14,4 10,4 16 9 WSW 1015,3 10 0 0,0
17.07.2018 23:00:00 13,8 10,8 11 6 WSW 1015,0 10 0 0,0
17.07.2018 22:00:00 14,8 10,7 11 6 WSW 1014,7 10 0 0,0
17.07.2018 21:00:00 16,5 9,8 9 5 WSW 1014,2 10 54 0,0
17.07.2018 20:00:00 18,5 9,8 13 7 WSW 1013,9 10 24 0,0
17.07.2018 19:00:00 18,3 9,4 18 10 W 1013,5 10 24 0,0
17.07.2018 18:00:00 17,1 12,5 9 5 SW 1013,5 10 0 0,0
17.07.2018 17:00:00 17,4 12,8 11 6 SE 1013,2 10 0 0,0
17.07.2018 16:00:00 18,0 13,0 15 8 ESE 1013,2 10 18 0,0
17.07.2018 15:00:00 15,8 13,3 5 3 S 1013,5 10 0 0,2
17.07.2018 14:00:00 16,9 11,9 11 6 E 1013,2 10 18 0,0
17.07.2018 13:00:00 16,2 12,8 8 4 NNE 1013,3 10 6 0,0
17.07.2018 12:00:00 16,3 11,8 9 5 SE 1013,2 10 0 0,0
17.07.2018 11:00:00 16,7 11,9 8 4 E 1013,0 10 18 0,0
17.07.2018 10:00:00 16,8 13,5 8 4 WSW 1012,8 30 12 0,0
17.07.2018 09:00:00 15,7 14,3 5 3 SW 1012,6 10 0 0,0
17.07.2018 08:00:00 14,2 13,5 5 3 S 1012,4 10 6 0,0
17.07.2018 07:00:00 13,3 12,7 2 1 SSW 1012,3 10 0 0,0
17.07.2018 06:00:00 12,8 12,1 2 1 W 1012,2 10 0 2,8
17.07.2018 05:00:00 13,1 12,3 13 7 W 1011,9 2,1 0 0,6
17.07.2018 04:00:00 13,5 12,0 15 8 WNW 1011,8 10 0 0,0
17.07.2018 03:00:00 13,7 12,1 11 6 WNW 1012,1 10 0 0,2
17.07.2018 02:00:00 14,5 13,8 9 5 WNW 1012,1 10 0 1,8
17.07.2018 01:00:00 14,6 14,0 5 3 NE 1012,5 3,7 - 5,0
17.07.2018 00:00:00 15,3 14,1 5 3 WSW 1012,6 6 0 0,4
16.07.2018 23:00:00 15,5 14,0 4 2 NNW 1012,4 10 0 0,0
16.07.2018 22:00:00 15,7 13,0 5 3 S 1012,4 10 0 0,0
16.07.2018 21:00:00 16,0 13,8 4 2 S 1012,1 10 0 0,0
16.07.2018 20:00:00 17,2 13,8 8 4 SE 1011,9 10 0 0,0
16.07.2018 19:00:00 17,1 13,4 8 4 SE 1011,9 10 0 0,0
16.07.2018 18:00:00 18,9 13,3 9 5 SSW 1011,8 10 0 0,0
16.07.2018 17:00:00 18,5 12,8 13 7 SW 1012,2 10 0 0,0
16.07.2018 16:00:00 18,5 14,5 13 7 SW 1012,1 10 0 0,2
16.07.2018 15:00:00 17,9 14,7 16 9 SW 1012,5 10 0 0,0
16.07.2018 14:00:00 18,6 15,0 18 10 SW 1012,4 10 0 0,0
16.07.2018 13:00:00 18,9 16,0 16 9 SW 1012,4 10 0 0,2
16.07.2018 12:00:00 18,7 16,8 9 5 S 1012,3 10 0 0,2
16.07.2018 11:00:00 18,9 15,4 9 5 S 1012,1 10 0 0,0
16.07.2018 10:00:00 17,8 14,9 5 3 SE 1011,8 10 0 0,0
16.07.2018 09:00:00 18,2 15,5 9 5 S 1011,7 10 0 0,0
16.07.2018 08:00:00 17,8 15,5 13 7 S 1011,6 10 0 0,0
16.07.2018 07:00:00 16,7 14,9 9 5 SSW 1011,7 10 0 0,0
16.07.2018 06:00:00 15,7 14,0 5 3 S 1011,9 10 0 0,0
16.07.2018 05:00:00 14,9 13,0 9 5 S 1012,1 10 0 0,0
16.07.2018 04:00:00 14,6 12,9 9 5 S 1012,5 10 0 0,0
16.07.2018 03:00:00 14,3 12,6 5 3 S 1012,6 10 0 0,0
16.07.2018 02:00:00 14,8 13,1 9 5 SSW 1012,8 10 0 0,0
16.07.2018 01:00:00 14,4 12,9 5 3 S 1013,1 10 - 0,0
16.07.2018 00:00:00 14,6 12,7 8 4 SSW 1013,1 10 0 0,0
15.07.2018 23:00:00 16,7 13,2 11 6 WSW 1013,0 10 0 0,0
15.07.2018 22:00:00 18,6 13,6 9 5 WSW 1013,0 24 0 0,0
15.07.2018 21:00:00 20,2 14,1 11 6 SW 1012,7 10 30 0,0
15.07.2018 20:00:00 23,0 13,1 18 10 SW 1012,4 10 60 0,0
15.07.2018 19:00:00 23,7 14,3 15 8 SW 1012,4 10 60 0,0
15.07.2018 18:00:00 19,0 14,5 18 10 SSE 1012,7 10 42 0,0
15.07.2018 17:00:00 19,6 14,8 24 13 SE 1012,7 10 60 0,0
15.07.2018 16:00:00 21,0 15,1 24 13 SE 1012,8 10 54 0,0
15.07.2018 15:00:00 21,5 13,5 18 10 SE 1012,9 10 54 0,0
15.07.2018 14:00:00 23,2 14,2 22 12 SE 1012,9 10 60 0,0
15.07.2018 13:00:00 22,5 14,0 24 13 SE 1013,4 10 60 0,0
15.07.2018 12:00:00 21,2 13,2 22 12 SE 1013,7 10 60 0,0
15.07.2018 11:00:00 19,9 13,2 21 11 SE 1014,1 10 60 0,0
15.07.2018 10:00:00 20,9 13,1 13 7 SSE 1014,1 10 60 0,0
15.07.2018 09:00:00 20,4 13,1 16 9 SW 1014,3 10 60 0,0
15.07.2018 08:00:00 17,3 14,0 9 5 S 1014,6 10 60 0,0

tt = Température de l'air
td = dewpoint
ff = Vitesse du vent
dd = Direction du vent
ppp = reduced air pressure
vv = visibility
sd = Ensoleillement
rr = Quantités de précipitations

stations d'obs. à proximité